Zurück zum Katalog

NADEZHDA 4

AktivKommunikationPO
NORAD 23179·PAYLOAD·🇷🇺 Russia

Gestartet Jul 14, 1994 von Plesetsk Cosmodrome

Loading…

Nächste Überflüge (nächste 24 Stunden)

TLE

AktuellSource: Space-Track

Epoche: Sep 14, 2026, 10:09 UTC

1 23179U 94041A   26257.42302385  .00000056  00000-0  41764-4 0  9996
2 23179  82.9485 320.7682 0034809 197.8458 172.8805 13.76818817615805

Verfolge NADEZHDA 4 in Echtzeit mit AllMySat

Download on the App Store